Time,TemperatureF,DewpointF,PressureIn,WindDirection,WindDirectionDegrees,WindSpeedMPH,WindSpeedGustMPH,Humidity,HourlyPrecipIn,Conditions,Clouds,dailyrainin,SoftwareType,DateUTC
2013-10-23 00:14:00,42.0,38.0,29.90,WNW,296,0.0,0.0,86,0.00,,,0.14,,2013-10-23 04:14:00,
2013-10-23 00:24:00,42.0,38.0,29.90,WNW,296,0.0,0.0,87,0.00,,,0.14,,2013-10-23 04:24:00,
2013-10-23 00:55:00,42.0,39.0,29.89,WNW,296,0.0,0.0,89,0.00,,,0.14,,2013-10-23 04:55:00,
2013-10-23 01:23:00,41.0,37.0,29.87,WNW,296,0.0,0.0,87,0.00,,,0.14,,2013-10-23 05:23:00,
2013-10-23 01:53:00,42.0,38.0,29.87,WNW,296,0.0,0.0,87,0.00,,,0.14,,2013-10-23 05:53:00,
2013-10-23 02:22:00,42.0,39.0,29.86,WNW,295,0.0,1.0,88,0.00,,,0.14,,2013-10-23 06:22:00,
2013-10-23 02:42:00,42.0,39.0,29.86,WNW,295,1.0,2.0,88,0.00,,,0.14,,2013-10-23 06:42:00,
2013-10-23 02:52:00,42.0,38.0,29.85,WNW,295,0.0,0.0,87,0.00,,,0.14,,2013-10-23 06:52:00,
2013-10-23 03:22:00,43.0,37.0,29.84,WNW,295,0.0,0.0,80,0.00,,,0.14,,2013-10-23 07:22:00,
2013-10-23 03:52:00,42.0,37.0,29.83,WNW,295,0.0,0.0,83,0.00,,,0.14,,2013-10-23 07:52:00,
2013-10-23 04:22:00,43.0,35.0,29.83,WNW,284,1.0,2.0,74,0.00,,,0.14,,2013-10-23 08:22:00,
2013-10-23 04:53:00,42.0,35.0,29.82,West,275,0.0,1.0,76,0.00,,,0.14,,2013-10-23 08:53:00,
2013-10-23 05:22:00,42.0,35.0,29.82,SSE,148,1.0,3.0,77,0.00,,,0.14,,2013-10-23 09:22:00,
2013-10-23 05:53:00,42.0,36.0,29.81,West,262,0.0,2.0,80,0.00,,,0.14,,2013-10-23 09:53:00,
2013-10-23 06:23:00,41.0,36.0,29.81,SW,234,0.0,0.0,83,0.00,,,0.11,,2013-10-23 10:23:00,
2013-10-23 06:53:00,40.0,36.0,29.80,SW,234,0.0,0.0,87,0.01,,,0.12,,2013-10-23 10:53:00,
2013-10-23 07:22:00,40.0,37.0,29.80,SW,234,0.0,0.0,89,0.01,,,0.03,,2013-10-23 11:22:00,
2013-10-23 07:52:00,40.0,37.0,29.79,SW,235,0.0,0.0,89,0.00,,,0.03,,2013-10-23 11:52:00,
2013-10-23 08:22:00,40.0,37.0,29.79,SW,236,0.0,0.0,89,0.00,,,0.01,,2013-10-23 12:22:00,
2013-10-23 08:52:00,40.0,37.0,29.80,ESE,119,0.0,2.0,89,0.00,,,0.01,,2013-10-23 12:52:00,
2013-10-23 09:12:00,40.0,37.0,29.80,SE,127,0.0,3.0,89,0.00,,,0.01,,2013-10-23 13:12:00,
2013-10-23 09:22:00,40.0,37.0,29.81,SW,221,0.0,5.0,89,0.00,,,0.01,,2013-10-23 13:22:00,
2013-10-23 09:52:00,40.0,37.0,29.80,West,268,0.0,2.0,90,0.01,,,0.02,,2013-10-23 13:52:00,
2013-10-23 10:22:00,40.0,37.0,29.80,West,259,1.0,3.0,90,0.03,,,0.04,,2013-10-23 14:22:00,
2013-10-23 10:52:00,40.0,38.0,29.81,West,279,0.0,1.0,91,0.02,,,0.04,,2013-10-23 14:52:00,
2013-10-23 11:22:00,40.0,38.0,29.80,West,279,0.0,3.0,91,0.01,,,0.05,,2013-10-23 15:22:00,
2013-10-23 11:43:00,41.0,38.0,29.80,WSW,249,1.0,3.0,90,0.02,,,0.06,,2013-10-23 15:43:00,
2013-10-23 11:53:00,41.0,38.0,29.80,WNW,298,1.0,4.0,89,0.02,,,0.06,,2013-10-23 15:53:00,
2013-10-23 12:23:00,40.0,37.0,29.79,NW,304,1.0,3.0,90,0.01,,,0.06,,2013-10-23 16:23:00,
2013-10-23 12:53:00,41.0,39.0,29.79,NW,309,0.0,4.0,91,0.00,,,0.06,,2013-10-23 16:53:00,
2013-10-23 13:23:00,41.0,38.0,29.79,WNW,299,1.0,3.0,89,0.01,,,0.07,,2013-10-23 17:23:00,
2013-10-23 13:44:00,41.0,38.0,29.78,WNW,296,1.0,4.0,90,0.01,,,0.07,,2013-10-23 17:44:00,
2013-10-23 13:52:00,41.0,38.0,29.78,WNW,283,0.0,3.0,90,0.02,,,0.08,,2013-10-23 17:52:00,
2013-10-23 14:22:00,41.0,38.0,29.78,WNW,296,2.0,4.0,89,0.01,,,0.08,,2013-10-23 18:22:00,
2013-10-23 14:42:00,42.0,39.0,29.78,WNW,288,1.0,4.0,89,0.01,,,0.08,,2013-10-23 18:42:00,
2013-10-23 14:52:00,41.0,38.0,29.78,WNW,293,2.0,5.0,89,0.01,,,0.09,,2013-10-23 18:52:00,
2013-10-23 15:12:00,41.0,39.0,29.79,WNW,301,1.0,7.0,91,0.01,,,0.09,,2013-10-23 19:12:00,
2013-10-23 15:22:00,41.0,39.0,29.79,West,263,2.0,4.0,91,0.01,,,0.09,,2013-10-23 19:22:00,
2013-10-23 15:53:00,41.0,39.0,29.81,West,277,0.0,5.0,91,0.01,,,0.10,,2013-10-23 19:53:00,
2013-10-23 16:22:00,41.0,38.0,29.82,West,274,1.0,3.0,90,0.01,,,0.10,,2013-10-23 20:22:00,
2013-10-23 16:52:00,41.0,38.0,29.83,WNW,298,2.0,6.0,90,0.02,,,0.12,,2013-10-23 20:52:00,
2013-10-23 17:22:00,41.0,39.0,29.85,West,281,1.0,2.0,92,0.04,,,0.14,,2013-10-23 21:22:00,
2013-10-23 17:54:00,41.0,39.0,29.85,WNW,290,0.0,3.0,92,0.02,,,0.14,,2013-10-23 21:54:00,
2013-10-23 18:24:00,41.0,38.0,29.88,NW,308,1.0,3.0,90,0.00,,,0.14,,2013-10-23 22:24:00,
2013-10-23 18:54:00,40.0,37.0,29.89,WNW,294,0.0,5.0,89,0.00,,,0.14,,2013-10-23 22:54:00,
2013-10-23 19:22:00,39.0,36.0,29.90,West,269,0.0,4.0,89,0.00,,,0.14,,2013-10-23 23:22:00,
2013-10-23 19:53:00,39.0,36.0,29.92,West,268,1.0,2.0,89,0.00,,,0.14,,2013-10-23 23:53:00,
2013-10-23 20:12:00,39.0,36.0,29.92,SW,233,1.0,3.0,90,0.00,,,0.14,,2013-10-24 00:12:00,
2013-10-23 20:22:00,39.0,36.0,29.92,West,267,1.0,5.0,90,0.00,,,0.14,,2013-10-24 00:22:00,
2013-10-23 20:52:00,39.0,36.0,29.93,WSW,254,2.0,6.0,89,0.00,,,0.14,,2013-10-24 00:52:00,
2013-10-23 21:11:00,39.0,36.0,29.94,SW,234,1.0,5.0,90,0.00,,,0.14,,2013-10-24 01:11:00,
2013-10-23 21:22:00,39.0,36.0,29.94,West,273,1.0,5.0,90,0.00,,,0.14,,2013-10-24 01:22:00,
2013-10-23 21:42:00,39.0,36.0,29.94,West,281,3.0,6.0,90,0.00,,,0.14,,2013-10-24 01:42:00,
2013-10-23 21:52:00,39.0,36.0,29.95,NNE,13,1.0,6.0,90,0.00,,,0.14,,2013-10-24 01:52:00,
2013-10-23 22:12:00,39.0,36.0,29.95,WSW,244,1.0,7.0,90,0.00,,,0.14,,2013-10-24 02:12:00,
2013-10-23 22:22:00,38.0,35.0,29.95,WSW,248,3.0,6.0,89,0.00,,,0.14,,2013-10-24 02:22:00,
2013-10-23 23:22:00,38.0,35.0,29.96,West,263,2.0,7.0,89,0.00,,,0.14,,2013-10-24 03:22:00,
2013-10-23 23:55:00,37.0,34.0,29.96,West,260,2.0,5.0,89,0.00,,,0.14,,2013-10-24 03:55:00,